[[{"header":{"parameterUnit":"m.s-1","parameterCategory":1,"la1":30.2991,"la2":30.254,"lo1":-89.0895,"lo2":-89.0444,"dy":0.0017,"dx":0.0017,"nx":28,"ny":28,"refTime":"2024-08-17T09:00:00:Z","depth":0,"parameterNumber":2,"parameterNumberName":"U-component_of_WINDS"},"data":[0,0,0,0,0,0,0,0,0,0,0,0,0,0,0,0,0,0,0,0,0,0,0,0,0,0,0,0,0,0,0,0,0,0,0,0,0,0,0,0,0,0,0,0,0,0,0,0,0,0,0,0,0,0,0,0,0,0,4.1414,4.1421,0,4.2126,4.2134,4.2142,4.2472,4.2472,4.2471,4.2471,4.3212,4.3232,4.3252,0,0,0,0,0,0,0,0,0,0,0,0,0,4.0352,4.0369,4.1413,4.1422,4.1431,4.2124,4.2134,4.2144,4.2473,4.2472,4.2471,4.247,4.3205,4.3229,4.3254,0,0,0,0,0,0,0,0,0,0,0,0,0,4.0913,4.0375,4.1412,4.1678,4.1709,4.2123,4.2135,4.2147,4.2473,4.2472,4.2471,4.247,4.3197,4.3227,4.3257,4.3463,0,0,4.335,4.3363,0,0,0,0,0,0,0,0,4.0881,4.0952,4.163,4.166,4.1696,4.2209,4.2032,4.2588,4.2473,4.2183,4.2471,4.247,4.288,4.2936,4.3072,4.3497,4.3529,4.3353,4.3371,4.3384,4.3393,0,0,0,0,0,0,0,4.0841,4.0923,4.1696,4.164,4.168,4.1767,4.1846,4.2139,4.2528,4.2208,4.2234,4.2313,4.2898,4.3042,4.3092,4.354,4.3352,4.3379,4.3398,4.3409,4.4175,4.4177,0,0,0,0,0,0,4.0757,4.0888,4.1673,4.1717,4.1277,4.1786,4.1875,4.2045,4.2526,4.2598,4.2313,4.2326,4.2991,4.3056,4.3119,4.3395,4.3384,4.3412,4.343,4.4173,4.4176,4.4178,0,0,0,0,0,0,4.0733,4.0824,4.1644,4.131,4.1421,4.1806,4.1995,4.206,4.2205,4.2605,4.2677,4.2388,4.2992,4.3077,4.3375,4.3425,4.3426,4.3454,4.4171,4.4174,4.4177,4.3944,0,0,0,0,0,0,4.0701,4.0813,4.0892,4.1309,4.1437,4.1883,4.1998,4.2075,4.2255,4.2278,4.2694,4.2763,4.2998,4.3328,4.3405,4.3467,4.3478,4.4168,4.4172,4.4176,4.3949,4.3939,4.393,0,0,0,0,0,4.0662,4.08,4.0894,4.0987,4.1543,4.1885,4.1959,4.2224,4.2257,4.2342,4.26,4.275,4.3406,4.3355,4.3446,4.3517,4.4166,4.4171,4.4175,4.3953,4.3941,4.393,0,0,0,0,0,0,4.0383,4.0859,4.0969,4.1245,4.1521,4.194,4.2055,4.2202,4.2478,4.2488,4.2809,4.2901,4.3171,4.3375,4.331,4.3744,4.38,4.3823,4.3601,4.3592,4.3583,4.3529,4.3503,0,0,0,0,0,4.0352,4.0585,4.0992,4.1196,4.1329,4.1666,4.1826,4.2005,4.2307,4.2427,4.2706,4.2996,4.3269,4.3442,4.3715,4.398,4.4078,4.4074,4.4064,4.4055,4.4071,4.4231,4.4235,4.4193,4.4193,4.4193,0,0,4.0294,4.0583,4.0711,4.1147,4.1383,4.1622,4.1763,4.201,4.2192,4.2466,4.2764,4.2979,4.3325,4.3607,4.3747,4.3786,4.4104,4.4061,4.405,4.4073,4.4236,4.4239,4.4242,4.4196,4.4196,4.4195,0,0,4.0309,4.0549,4.0747,4.098,4.1333,4.1557,4.1604,4.2002,4.2154,4.2457,4.2669,4.2893,4.3354,4.3593,4.3774,4.3881,4.403,4.3961,4.3912,4.4064,4.4067,4.4071,4.4113,4.4123,4.3976,4.3975,4.3975,0,4.0192,4.0556,4.0831,4.1067,4.1254,4.1509,4.1715,4.1929,4.2354,4.248,4.2517,4.3103,4.3354,4.3697,4.3723,4.3861,4.3929,4.3915,4.4043,4.4051,4.4059,4.4102,4.4116,4.3965,4.3966,4.3967,4.3968,0,4.0398,4.0647,4.0765,4.1165,4.1367,4.1585,4.1898,4.207,4.2232,4.2453,4.2762,4.3072,4.3413,4.3508,4.367,4.3877,4.389,4.398,4.4044,4.4048,4.4094,4.4112,4.395,4.3953,4.3957,4.3959,0,0,4.0257,4.0806,4.0845,4.1031,4.144,4.1641,4.1874,4.2203,4.2346,4.2631,4.2838,4.3223,4.331,4.3516,4.3708,4.384,4.3909,4.3917,4.393,4.3906,4.416,4.4089,4.4103,4.401,4.4014,4.4018,4.4132,0,4.033,4.0753,4.1008,4.133,4.1566,4.1813,4.2017,4.2292,4.2505,4.2742,4.2981,4.3249,4.3342,4.3468,4.361,4.3869,4.3965,4.3865,4.421,4.4219,4.4116,4.4128,4.4055,4.4146,4.4151,4.4154,4.4157,0,4.0472,4.0748,4.109,4.1475,4.1584,4.1761,4.2086,4.2307,4.2627,4.2774,4.3002,4.3196,4.3457,4.3497,4.3864,4.379,4.3948,4.4096,4.4107,4.4151,4.4188,4.4173,4.4182,4.4196,4.4187,4.4185,4.4182,0,4.0337,4.0795,4.1061,4.1212,4.1666,4.1786,4.1982,4.23,4.2483,4.2768,4.2891,4.3203,4.3375,4.3615,4.389,4.3894,4.4231,4.4294,4.4364,4.4357,4.4425,4.4417,4.446,4.4521,4.4521,4.4521,4.452,0,4.0393,4.0594,4.1006,4.1169,4.1403,4.1697,4.1922,4.2139,4.2421,4.2635,4.2869,4.3065,4.3415,4.3656,4.3874,4.4146,4.4222,4.4351,4.4407,4.4332,4.4315,4.444,4.4441,4.4525,4.4524,4.4523,4.4522,0,4.0282,4.0565,4.0871,4.1276,4.1382,4.1537,4.1887,4.2058,4.2283,4.2551,4.2631,4.2988,4.3284,4.3581,4.3982,4.4129,4.4397,4.4472,4.4287,4.4319,4.4373,4.4364,4.4499,4.4534,4.4567,4.4566,4.4565,0,4.03,4.046,4.088,4.1038,4.1227,4.1478,4.1665,4.1962,4.2148,4.2525,4.2651,4.2964,4.323,4.3694,4.3992,4.4301,4.4386,4.4412,4.4434,4.4354,4.439,4.4377,4.4397,4.4402,4.44,4.4399,4.4397,0,4.0302,4.0434,4.0691,4.0999,4.1214,4.1472,4.1739,4.1856,4.2206,4.2404,4.2707,4.2913,4.3321,4.3631,4.3975,4.4184,4.4351,4.4388,4.4421,4.4346,4.4234,4.4298,4.4263,4.4384,4.4385,4.4386,4.4387,4.4387,4.026,4.0413,4.0733,4.1013,4.1244,4.1488,4.1668,4.1916,4.2172,4.2524,4.2686,4.2991,4.3313,4.3791,4.3997,4.4245,4.4289,4.4336,4.4349,4.4356,4.4339,4.4191,4.4308,4.4309,4.431,4.4311,4.4311,0,4.0275,4.0492,4.0747,4.111,4.1332,4.1464,4.1767,4.1945,4.221,4.2492,4.2749,4.31,4.3402,4.3723,4.4045,4.4182,4.4267,4.4257,4.4251,4.4297,4.428,4.422,4.4183,4.4183,4.4183,4.4182,4.4182,4.4182,4.0309,4.0578,4.0748,4.1135,4.1355,4.1652,4.1814,4.2042,4.2269,4.2648,4.2899,4.3104,4.3406,4.3752,4.4036,4.4124,4.4233,4.4201,4.431,4.4289,4.4298,4.4306,4.4252,4.4221,4.4221,4.4307,4.4308,4.4308]},{"header":{"parameterUnit":"m.s-1","parameterCategory":1,"la1":30.2991,"la2":30.254,"lo1":-89.0895,"lo2":-89.0444,"dy":0.0017,"dx":0.0017,"nx":28,"ny":28,"refTime":"2024-08-17T09:00:00:Z","depth":0,"parameterNumber":3,"parameterNumberName":"V-component_of_WINDS"},"data":[0,0,0,0,0,0,0,0,0,0,0,0,0,0,0,0,0,0,0,0,0,0,0,0,0,0,0,0,0,0,0,0,0,0,0,0,0,0,0,0,0,0,0,0,0,0,0,0,0,0,0,0,0,0,0,0,0,0,-2.0228,-2.0229,0,-2.0329,-2.033,-2.0331,-2.021,-2.0205,-2.0201,-2.0196,-2.0309,-2.0316,-2.0323,0,0,0,0,0,0,0,0,0,0,0,0,0,-1.9941,-1.9946,-2.0228,-2.0229,-2.0231,-2.0328,-2.033,-2.0331,-2.0211,-2.0205,-2.02,-2.0194,-2.0307,-2.0315,-2.0324,0,0,0,0,0,0,0,0,0,0,0,0,0,-2.0056,-1.9948,-2.0228,-2.0182,-2.0179,-2.0328,-2.033,-2.0332,-2.0212,-2.0205,-2.0198,-2.0192,-2.0304,-2.0314,-2.0325,-2.0527,0,0,-2.0358,-2.0363,0,0,0,0,0,0,0,0,-2.005,-2.0067,-2.0187,-2.0185,-2.0182,-2.0249,-2.0269,-2.0398,-2.0213,-2.02,-2.0196,-2.0188,-2.0295,-2.0306,-2.034,-2.0533,-2.0537,-2.0359,-2.0365,-2.037,-2.0373,0,0,0,0,0,0,0,-2.0042,-2.0062,-2.0268,-2.0189,-2.0186,-2.0159,-2.0168,-2.0293,-2.0285,-2.02,-2.0192,-2.0205,-2.0293,-2.033,-2.0342,-2.0539,-2.0359,-2.0368,-2.0375,-2.0379,-2.0904,-2.0912,0,0,0,0,0,0,-2.0038,-2.0056,-2.0265,-2.0271,-2.0097,-2.017,-2.018,-2.0235,-2.0283,-2.0283,-2.021,-2.0199,-2.0315,-2.033,-2.0346,-2.0588,-2.037,-2.038,-2.0386,-2.0897,-2.0906,-2.0914,0,0,0,0,0,0,-2.0032,-2.0058,-2.0261,-2.0161,-2.0185,-2.0182,-2.0245,-2.024,-2.0278,-2.029,-2.0289,-2.025,-2.031,-2.033,-2.0483,-2.059,-2.0385,-2.0395,-2.0888,-2.09,-2.091,-2.1073,0,0,0,0,0,0,-2.0024,-2.0056,-2.0131,-2.0164,-2.0191,-2.0395,-2.0251,-2.0247,-2.0296,-2.0281,-2.0327,-2.0328,-2.0307,-2.0467,-2.0494,-2.0601,-2.0403,-2.0879,-2.0893,-2.0907,-2.1058,-2.1088,-2.1114,0,0,0,0,0,-2.0015,-2.0175,-2.0136,-2.0162,-2.0284,-2.0401,-2.0417,-2.0386,-2.0305,-2.0382,-2.039,-2.0327,-2.0573,-2.0484,-2.0512,-2.0625,-2.0872,-2.0889,-2.0906,-2.1046,-2.1082,-2.1113,0,0,0,0,0,0,-2.0159,-2.0178,-2.0135,-2.031,-2.0354,-2.038,-2.0476,-2.0425,-2.0496,-2.048,-2.0441,-2.0453,-2.0616,-2.0635,-2.0535,-2.0824,-2.071,-2.0733,-2.0806,-2.0841,-2.0869,-2.0863,-2.0412,0,0,0,0,0,-2.021,-2.03,-2.0313,-2.0467,-2.0491,-2.048,-2.053,-2.0501,-2.0547,-2.0566,-2.0585,-2.0635,-2.0723,-2.0783,-2.0865,-2.1059,-2.1069,-2.115,-2.1178,-2.1201,-2.1223,-2.133,-2.1367,-2.0969,-2.0969,-2.0969,0,0,-2.0319,-2.034,-2.04,-2.0496,-2.0527,-2.0625,-2.0497,-2.0605,-2.0678,-2.0584,-2.0729,-2.0744,-2.0797,-2.0972,-2.105,-2.0993,-2.1335,-2.1223,-2.1241,-2.1251,-2.1351,-2.1389,-2.1423,-2.0981,-2.0979,-2.0977,0,0,-2.0567,-2.0591,-2.0722,-2.0755,-2.0802,-2.0794,-2.0825,-2.0859,-2.0865,-2.1008,-2.094,-2.1028,-2.118,-2.1221,-2.1262,-2.1525,-2.1471,-2.1552,-2.1701,-2.1806,-2.1837,-2.1865,-2.1962,-2.1997,-2.1573,-2.1574,-2.1574,0,-2.0697,-2.0838,-2.0797,-2.091,-2.0956,-2.087,-2.1005,-2.104,-2.1114,-2.1149,-2.1082,-2.1272,-2.1302,-2.1486,-2.155,-2.1585,-2.1622,-2.1549,-2.1835,-2.1862,-2.1888,-2.198,-2.2016,-2.1584,-2.1583,-2.1582,-2.1581,0,-2.0998,-2.1097,-2.1198,-2.1268,-2.1324,-2.1448,-2.1427,-2.149,-2.1457,-2.1456,-2.1605,-2.1637,-2.1724,-2.1765,-2.1735,-2.1946,-2.191,-2.184,-2.1725,-2.1936,-2.2023,-2.2057,-2.1598,-2.1594,-2.1591,-2.1589,0,0,-2.1343,-2.1386,-2.1424,-2.1456,-2.1501,-2.1579,-2.1699,-2.1782,-2.1838,-2.1891,-2.1994,-2.2124,-2.206,-2.2106,-2.2079,-2.217,-2.2381,-2.209,-2.209,-2.2146,-2.2619,-2.2674,-2.2715,-2.2343,-2.2349,-2.2355,-2.2616,0,-2.1594,-2.18,-2.1765,-2.1966,-2.2059,-2.1979,-2.2085,-2.2126,-2.2128,-2.221,-2.2213,-2.2307,-2.2213,-2.2241,-2.2327,-2.2337,-2.2476,-2.2317,-2.2443,-2.2447,-2.2436,-2.276,-2.2818,-2.3063,-2.2649,-2.2655,-2.2659,0,-2.1915,-2.1977,-2.2187,-2.2218,-2.2256,-2.2351,-2.2425,-2.2502,-2.2548,-2.2544,-2.2595,-2.2551,-2.2675,-2.2554,-2.2726,-2.2619,-2.2667,-2.268,-2.2688,-2.2703,-2.2569,-2.2787,-2.314,-2.3179,-2.2711,-2.2707,-2.2703,0,-2.215,-2.2286,-2.2429,-2.2458,-2.2498,-2.2567,-2.2587,-2.2626,-2.2678,-2.2743,-2.2777,-2.2856,-2.2901,-2.2965,-2.2946,-2.2859,-2.3123,-2.3,-2.3126,-2.3127,-2.3189,-2.3186,-2.356,-2.3214,-2.3214,-2.3213,-2.3212,0,-2.2437,-2.2569,-2.2536,-2.2625,-2.2771,-2.2731,-2.2878,-2.2889,-2.2924,-2.3016,-2.2951,-2.3039,-2.3006,-2.3093,-2.3078,-2.3224,-2.3244,-2.3247,-2.3242,-2.3255,-2.3255,-2.329,-2.3274,-2.3223,-2.3221,-2.3219,-2.3217,0,-2.2726,-2.2708,-2.2859,-2.2883,-2.2892,-2.3,-2.3022,-2.3107,-2.3102,-2.322,-2.3245,-2.3241,-2.334,-2.3325,-2.3436,-2.3426,-2.3609,-2.3582,-2.3594,-2.3589,-2.3717,-2.3707,-2.4129,-2.4184,-2.38,-2.3803,-2.3806,0,-2.2911,-2.3011,-2.3045,-2.31,-2.3124,-2.3215,-2.3267,-2.3231,-2.3289,-2.3348,-2.3427,-2.3519,-2.3592,-2.3754,-2.3763,-2.3848,-2.3825,-2.3967,-2.3838,-2.3848,-2.3831,-2.3827,-2.3838,-2.3994,-2.3998,-2.4002,-2.4005,0,-2.3244,-2.323,-2.3306,-2.338,-2.3443,-2.3501,-2.3552,-2.3601,-2.3571,-2.3639,-2.3738,-2.3794,-2.3906,-2.4,-2.4079,-2.4103,-2.4052,-2.4044,-2.4079,-2.4095,-2.4099,-2.4102,-2.3668,-2.4036,-2.4033,-2.4031,-2.4029,-2.4028,-2.3489,-2.3575,-2.3612,-2.3699,-2.3733,-2.3783,-2.3864,-2.3869,-2.395,-2.4036,-2.401,-2.4124,-2.4168,-2.4269,-2.4301,-2.4391,-2.434,-2.4389,-2.4402,-2.4415,-2.4432,-2.4081,-2.4405,-2.4404,-2.4404,-2.4403,-2.4402,0,-2.3822,-2.3841,-2.3921,-2.3994,-2.4063,-2.4003,-2.4056,-2.412,-2.4219,-2.4264,-2.4335,-2.445,-2.4541,-2.4556,-2.4643,-2.4713,-2.4691,-2.4737,-2.4734,-2.4741,-2.4472,-2.4435,-2.4753,-2.4753,-2.4753,-2.4753,-2.4753,-2.4753,-2.4003,-2.4145,-2.4135,-2.4295,-2.4313,-2.4422,-2.4458,-2.4504,-2.4539,-2.467,-2.4744,-2.4751,-2.4785,-2.4873,-2.4955,-2.4957,-2.4994,-2.5051,-2.5044,-2.4794,-2.4759,-2.4726,-2.4691,-2.5058,-2.5058,-2.5306,-2.5308,-2.531]}]]